LROP Weather Reports


time (UTC)temp
C
wind
direction
speed
KPH
gust
KPH
rain 1hr
cm
rain 24hr
cm
rain mn
cm
humidity
%
barometer
mb
20260831033302 17 30 9.7 0.0 0.00 0.00 0.00 83 1018.0
20260831031802 17 20 4.8 0.0 0.00 0.00 0.00 83 1018.0
20260831030303 17 20 4.8 0.0 0.00 0.00 0.00 83 1018.0
20260831024802 17 70 8.0 0.0 0.00 0.00 0.00 83 1018.0
20260831023310 17 70 8.0 0.0 0.00 0.00 0.00 83 1018.0
20260831021802 17 30 8.0 0.0 0.00 0.00 0.00 88 1018.0
20260831020304 17 30 8.0 0.0 0.00 0.00 0.00 88 1018.0
20260831014802 18 20 8.0 0.0 0.00 0.00 0.00 83 1018.0
20260831013301 18 20 8.0 0.0 0.00 0.00 0.00 83 1018.0
20260831011803 18 10 8.0 0.0 0.00 0.00 0.00 83 1018.0
20260831010302 18 10 8.0 0.0 0.00 0.00 0.00 83 1018.0
20260831004802 18 360 9.7 0.0 0.00 0.00 0.00 78 1018.0
20260831003302 18 360 9.7 0.0 0.00 0.00 0.00 78 1018.0
20260831001801 18 10 9.7 0.0 0.00 0.00 0.00 78 1018.0
20260831000303 18 10 9.7 0.0 0.00 0.00 0.00 78 1018.0
20260830234802 18 40 8.0 0.0 0.00 0.00 0.00 78 1018.0
20260830233302 18 40 8.0 0.0 0.00 0.00 0.00 78 1018.0
20260830231803 20 60 4.8 0.0 0.00 0.00 0.00 78 1018.0
20260830230303 20 60 4.8 0.0 0.00 0.00 0.00 78 1018.0
20260830224802 20 90 8.0 0.0 0.00 0.00 0.00 73 1018.0
20260830223302 20 90 8.0 0.0 0.00 0.00 0.00 73 1018.0
20260830221801 21 100 8.0 0.0 0.00 0.00 0.00 69 1018.0
20260830220302 21 100 8.0 0.0 0.00 0.00 0.00 69 1018.0
20260830214801 20 100 4.8 0.0 0.00 0.00 0.00 78 1018.0
20260830213302 20 100 4.8 0.0 0.00 0.00 0.00 78 1018.0
20260830211802 21 80 9.7 0.0 0.00 0.00 0.00 73 1018.0
20260830210302 21 80 9.7 0.0 0.00 0.00 0.00 73 1018.0
20260830204802 22 80 1.6 0.0 0.00 0.00 0.00 73 1018.0
20260830203302 22 80 1.6 0.0 0.00 0.00 0.00 73 1018.0
20260830201802 22 0 0.0 0.0 0.00 0.00 0.00 69 1017.0
20260830200302 22 0 0.0 0.0 0.00 0.00 0.00 69 1017.0
20260830194802 22 0 0.0 0.0 0.00 0.00 0.00 69 1017.0
20260830193302 22 0 0.0 0.0 0.00 0.00 0.00 69 1017.0
20260830191803 22 110 4.8 0.0 0.00 0.00 0.00 65 1017.0
20260830190303 22 110 4.8 0.0 0.00 0.00 0.00 65 1017.0
20260830184802 22 100 4.8 0.0 0.00 0.00 0.00 61 1017.0
20260830183331 22 100 4.8 0.0 0.00 0.00 0.00 61 1017.0
20260830181803 23 110 8.0 0.0 0.00 0.00 0.00 57 1017.0
20260830180302 23 110 8.0 0.0 0.00 0.00 0.00 57 1017.0
20260830174802 23 100 8.0 0.0 0.00 0.00 0.00 57 1017.0
20260830173302 23 100 8.0 0.0 0.00 0.00 0.00 57 1017.0
20260830171802 25 110 8.0 0.0 0.00 0.00 0.00 51 1016.0
20260830170302 25 110 8.0 0.0 0.00 0.00 0.00 51 1016.0
20260830164802 26 120 9.7 0.0 0.00 0.00 0.00 48 1016.0
20260830163302 26 120 9.7 0.0 0.00 0.00 0.00 48 1016.0
20260830161802 27 110 9.7 0.0 0.00 0.00 0.00 45 1016.0
20260830160302 27 110 9.7 0.0 0.00 0.00 0.00 45 1016.0
20260830154802 28 120 8.0 0.0 0.00 0.00 0.00 37 1016.0
20260830153302 28 120 8.0 0.0 0.00 0.00 0.00 37 1016.0
20260830151802 30 110 8.0 0.0 0.00 0.00 0.00 33 1017.0
20260830150304 30 110 8.0 0.0 0.00 0.00 0.00 33 1017.0
20260830144803 30 90 8.0 0.0 0.00 0.00 0.00 33 1017.0
20260830143302 30 90 8.0 0.0 0.00 0.00 0.00 33 1017.0
20260830141802 30 160 8.0 0.0 0.00 0.00 0.00 35 1017.0
20260830140301 30 160 8.0 0.0 0.00 0.00 0.00 35 1017.0
20260830134802 30 140 11.3 0.0 0.00 0.00 0.00 38 1017.0
20260830133315 30 140 11.3 0.0 0.00 0.00 0.00 38 1017.0
20260830131803 28 3.2 0.0 0.00 0.00 0.00 35 1017.0
20260830130301 28 3.2 0.0 0.00 0.00 0.00 35 1017.0
20260830124802 30 3.2 0.0 0.00 0.00 0.00 35 1017.0
20260830123301 30 3.2 0.0 0.00 0.00 0.00 35 1017.0
20260830121916 28 60 8.0 0.0 0.00 0.00 0.00 40 1017.0
20260830120302 28 60 8.0 0.0 0.00 0.00 0.00 40 1017.0
20260830114803 28 8.0 0.0 0.00 0.00 0.00 40 1018.0
20260830113302 28 8.0 0.0 0.00 0.00 0.00 40 1018.0
20260830111802 28 8.0 0.0 0.00 0.00 0.00 40 1018.0
20260830110302 28 8.0 0.0 0.00 0.00 0.00 40 1018.0
20260830104801 28 8.0 0.0 0.00 0.00 0.00 40 1018.0
20260830103302 28 8.0 0.0 0.00 0.00 0.00 40 1018.0
20260830101803 27 8.0 0.0 0.00 0.00 0.00 45 1018.0
20260830100302 27 8.0 0.0 0.00 0.00 0.00 45 1018.0
20260830094802 27 220 4.8 0.0 0.00 0.00 0.00 48 1018.0
20260830093302 27 220 4.8 0.0 0.00 0.00 0.00 48 1018.0
20260830091802 27 4.8 0.0 0.00 0.00 0.00 48 1018.0
20260830090323 27 4.8 0.0 0.00 0.00 0.00 48 1018.0
20260830084802 26 4.8 0.0 0.00 0.00 0.00 54 1019.0
20260830083309 26 4.8 0.0 0.00 0.00 0.00 54 1019.0
20260830081802 25 4.8 0.0 0.00 0.00 0.00 61 1019.0
20260830080302 25 4.8 0.0 0.00 0.00 0.00 61 1019.0
20260830074801 23 50 8.0 0.0 0.00 0.00 0.00 69 1019.0
20260830073333 23 50 8.0 0.0 0.00 0.00 0.00 69 1019.0
20260830071802 22 1.6 0.0 0.00 0.00 0.00 69 1018.0
20260830070302 22 1.6 0.0 0.00 0.00 0.00 69 1018.0
20260830064802 22 1.6 0.0 0.00 0.00 0.00 73 1018.0
20260830063302 22 1.6 0.0 0.00 0.00 0.00 73 1018.0
20260830061802 22 340 4.8 0.0 0.00 0.00 0.00 73 1018.0
20260830060302 22 340 4.8 0.0 0.00 0.00 0.00 73 1018.0
20260830054802 21 60 4.8 0.0 0.00 0.00 0.00 73 1018.0
20260830053302 21 60 4.8 0.0 0.00 0.00 0.00 73 1018.0
20260830051802 18 1.6 0.0 0.00 0.00 0.00 88 1018.0
20260830050302 18 1.6 0.0 0.00 0.00 0.00 88 1018.0
20260830044801 18 300 9.7 0.0 0.00 0.00 0.00 88 1017.0
20260830043302 18 300 9.7 0.0 0.00 0.00 0.00 88 1017.0
20260830041837 20 30 8.0 0.0 0.00 0.00 0.00 78 1017.0
20260830040302 20 30 8.0 0.0 0.00 0.00 0.00 78 1017.0
20260830034802 18 1.6 0.0 0.00 0.00 0.00 83 1017.0